User: anonymous   Login
Location: Çayiçi
(36.4667°N, 30.2333°E)
Time: 17:45:53
(UTC+00:00)
Language:

SL-24 R/B - RUBIN 2 - Orbit

View from above orbital plane
View from above orbital plane
View from above satellite
View from above satellite

Ground track
Ground track

The orbit data is extracted from the following two-line orbital elements,

1 27610U 02058F   23150.27115082  .00000283  00000-0  10356-3 0  9999
2 27610  64.5578  95.4853 0293486 359.0409 114.0844 14.28469052 65744
Epoch (UTC): 30 May 2023 06:30:27
Eccentricity: 0.0293486
inclination: 64.5578°
perigee height: 586 km
apogee height: 1007 km
right ascension of ascending node: 95.4853°
argument of perigee: 359.0409°
revolutions per day: 14.28469052
mean anomaly at epoch: 114.0844°
orbit number at epoch: 6574

The dashed part of the orbit path shows where the satellite is in the earth's shadow,  

DLR